Location: Navalmoral
(40.4603°N, 4.7686°W)
Time: 15:42:26
(UTC+00:00)

Atlas Centaur 2 - Pass Details

Date: 05 August 2024
Orbit: 457 x 1271 km, 30.4° (Epoch: 12 September)

Event Time Altitude Azimuth Distance (km) Brightness Sun altitude
Rises 21:15:16 0° 237° (WSW) 2,725 5.1 -17.9°
Reaches altitude 10° 21:17:42 10° 222° (SW) 1,936 4.1 -18.2°
Enters shadow 21:20:23 22° 186° (S) 1,417 3.1 -18.6°
